Change the Weather History Date:

Sunday, April 6, 2014

  Actual Average Record
Temperature  
Mean Temperature 61 °F -  
Max Temperature 78 °F 65 °F 80 °F (2007)
Min Temperature 44 °F 45 °F 37 °F (2012)
Degree Days  
Heating Degree Days 4    
Growing Degree Days 11 (Base 50)    
Moisture  
Dew Point 48 °F    
Average Humidity 65    
Maximum Humidity 96    
Minimum Humidity 35    
Precipitation  
Precipitation 0.00 in - - ()
Sea Level Pressure  
Sea Level Pressure 30.35 in    
Wind  
Wind Speed 5 mph (NNW)    
Max Wind Speed 17 mph    
Max Gust Speed 21 mph    
Visibility 10 miles    
Events      
Averages and records for this station are not official NWS values.
T = Trace of Precipitation, MM = Missing Value Source: NWS Daily Summary

Daily Weather History Graph

Daily Weather History Graph

Search for Another Location

Airport or City:

Trip Planner

Search our weather history database for the weather conditions in past years. The results will help you decide how hot, cold, wet, or windy it might be!

Date:

Astronomy

Apr. 06, 2014 Rise Set
Actual Time 6:42 AM PDT 7:34 PM PDT
Civil Twilight 6:15 AM PDT 8:01 PM PDT
Nautical Twilight 5:42 AM PDT 8:33 PM PDT
Astronomical Twilight 5:09 AM PDT 9:07 PM PDT
Moon 11:49 AM PDT (4/6) 1:32 AM PDT (4/6)
Length of Visible Light 13h 46m
Length of Day
12h 52m
Waxing Crescent, 45% of the Moon is Illuminated
Apr 6
Waxing Crescent
Apr 7
First Quarter
Apr 15
Full
Apr 22
Last Quarter
Apr 28
New

Hourly Weather History & Observations

Time (PDT) Temp. Windchill Dew Point Humidity Pressure Visibility Wind Dir Wind Speed Gust Speed Precip Events Conditions
12:13 AM 51.8 °F - 42.8 °F 71% 30.16 in 10.0 mi Calm Calm - N/A   Clear
12:58 AM 52.7 °F - 44.4 °F 73% 30.39 in 9.0 mi NE 3.5 mph - N/A   Clear
1:13 AM 51.8 °F - 44.6 °F 76% 30.16 in 10.0 mi NNE 2.3 mph - N/A   Clear
1:58 AM 51.1 °F - 44.6 °F 78% 30.39 in 10.0 mi North 1.2 mph - N/A   Clear
2:58 AM 48.4 °F - 43.9 °F 84% 30.39 in 10.0 mi North 1.2 mph - N/A   Clear
3:58 AM 50.7 °F - 43.2 °F 75% 30.39 in 10.0 mi NNE 4.6 mph - N/A   Clear
4:58 AM 46.4 °F - 43.2 °F 88% 30.40 in 10.0 mi Calm Calm - N/A   Clear
5:58 AM 44.8 °F - 43.7 °F 96% 30.40 in 10.0 mi NW 1.2 mph - N/A   Clear
6:58 AM 45.5 °F 41.3 °F 44.4 °F 96% 30.42 in 10.0 mi NW 8.1 mph - N/A   Clear
7:58 AM 49.6 °F - 46.9 °F 90% 30.44 in 10.0 mi North 4.6 mph - N/A   Clear
8:58 AM 55.9 °F - 47.5 °F 73% 30.44 in 10.0 mi WNW 4.6 mph - N/A   Clear
9:58 AM 59.2 °F - 46.6 °F 63% 30.44 in 10.0 mi NW 5.8 mph - N/A   Clear
10:58 AM 64.0 °F - 50.0 °F 60% 30.43 in 10.0 mi NNW 12.7 mph - N/A   Clear
11:58 AM 70.2 °F - 50.5 °F 50% 30.42 in 10.0 mi NW 16.1 mph - N/A   Clear
12:58 PM 74.1 °F - 50.2 °F 43% 30.39 in 10.0 mi NW 13.8 mph - N/A   Clear
1:58 PM 76.6 °F - 46.8 °F 35% 30.37 in 10.0 mi NW 15.0 mph - N/A   Clear
2:58 PM 77.7 °F - 49.3 °F 37% 30.35 in 10.0 mi NW 17.3 mph 20.7 mph N/A   Clear
3:58 PM 78.4 °F - 48.9 °F 35% 30.32 in 10.0 mi NW 16.1 mph - N/A   Clear
4:58 PM 78.1 °F - 49.3 °F 36% 30.32 in 10.0 mi NW 15.0 mph - N/A   Clear
5:58 PM 75.7 °F - 49.1 °F 39% 30.31 in 10.0 mi NNW 13.8 mph - N/A   Clear
6:58 PM 73.9 °F - 51.6 °F 45% 30.30 in 10.0 mi NNW 12.7 mph - N/A   Clear
7:58 PM 65.5 °F - 52.5 °F 63% 30.30 in 10.0 mi North 10.4 mph - N/A   Clear
8:58 PM 64.9 °F - 51.1 °F 61% 30.31 in 10.0 mi NNE 5.8 mph - N/A   Clear
9:58 PM 59.9 °F - 49.8 °F 69% 30.32 in 10.0 mi North 2.3 mph - N/A   Clear
10:58 PM 56.3 °F - 49.8 °F 79% 30.32 in 10.0 mi North 3.5 mph - N/A   Clear
11:58 PM 56.7 °F - 50.5 °F 80% 30.32 in 10.0 mi NW 4.6 mph - N/A   Clear